Regional Weather Roundup
Issued by NWS Lake Charles, LA

Home | Current Version | Previous Version | Text Only | Print | Product List | Glossary On
Versions: 1 2 3 4 5 6 7 8 9 10 11 12 13 14 15 16 17 18 19 20 21 22 23 24 25 26 27 28 29 30 31 32 33 34 35 36 37 38 39 40 41 42 43 44 45 46 47 48 49 50
000
ASUS44 KLCH 051610
RWRLCH
RWRLCH
REGIONAL WEATHER ROUNDUP
NATIONAL WEATHER SERVICE LAKE CHARLES LA
1100 AM CDT SAT SEP 05 2015

Note: "fair" indicates few or no clouds below 12,000 feet with no
significant weather and/or obstructions to visibility.


ACROSS SOUTHEAST TEXAS

CITY           SKY/WX    TMP DP  RH WIND       PRES   REMARKS
BEAUMONT       MOSUNNY   88  76  67 VRB5      30.05R
BEAUMONT CITY    N/A     86  76  70 CALM      30.06R
ORANGE         SUNNY     85  84  97 CALM      30.08R HX 104
JASPER         SUNNY     89  76  65 S6        30.09R HX 100
$$

ACROSS CENTRAL LOUISIANA

CITY           SKY/WX    TMP DP  RH WIND       PRES   REMARKS
LEESVILLE      PTSUNNY   86  73  66 W5        30.06S
FULLERTON        N/A     87  73  62 VRB3      30.04S
ALEXANDRIA INT MOSUNNY   88  72  58 VRB3      30.04S
ESLER FIELD    MOSUNNY   91  74  57 MISG      30.06R HX 100
DERIDDER       PTSUNNY   88  73  60 CALM      30.08S
OAKDALE          N/A     87  76  70 SW3       30.06S
OPELOUSAS      PTSUNNY   87  75  66 W6        30.06S
$$

ACROSS SOUTHWEST AND SOUTH CENTRAL LOUISIANA

CITY           SKY/WX    TMP DP  RH WIND       PRES   REMARKS
SULPHUR        MOSUNNY   85  77  77 NW3       30.07S
LAKE CHARLES   PTSUNNY   88  76  67 VRB5      30.05S
CHENNAULT INT  MOSUNNY   86  73  66 CALM      30.05S
CAMERON PHI    MOSUNNY   86  77  74 SW7       30.09S
DEQUINCY       PTSUNNY   78  78 100 CALM      30.07S
JENNINGS       NOT AVBL
LAFAYETTE      PTSUNNY   88  74  63 VRB3      30.06S
NEW IBERIA     MOSUNNY   88  76  67 VRB3      30.07R
ABBEVILLE      CLOUDY    82  74  77 SW12G20   30.07R
PATTERSON      SUNNY     84  75  74 N6        30.08R
SALT POINT       N/A     85  79  82 W5        30.05R
$$

SELECTED SITES ACROSS THE REGION

CITY           SKY/WX    TMP DP  RH WIND       PRES   REMARKS
HOUSTON BUSH   PTSUNNY   88  77  69 SE5       30.04R HX 100
HOUSTON HOBBY  PTSUNNY   79  73  83 SE6       30.03S
GALVESTON      MOSUNNY   88  80  77 S10       30.05R HX 104
COLLEGE STAT   MOSUNNY   86  76  71 S9        30.04S
CONROE         MOSUNNY   85  75  72 SE6       30.05S
HUNTSVILLE     MOSUNNY   87  74  64 S6        30.05S
LUFKIN         MOSUNNY   87  73  62 S5        30.05S
SHREVEPORT     PTSUNNY   88  75  65 SW7       30.05R
MONROE         SUNNY     91  76  61 CALM      30.05S HX 103
NATCHEZ MS     MOSUNNY   86  73  66 E3        30.07S
BATON ROUGE    PTSUNNY   87  76  69 VRB6      30.06S
N.O. INTL ARPT PTSUNNY   86  75  69 VRB5      30.05S
SLIDELL        SUNNY     88  76  67 NW6       30.04S
$$

MARINE REPORTS

STATION/POSITION TIME  TEMP    WIND        PRES    VSBY  WAVE
                       AIR SEA DIR/SP/G                  HT/PER
                 (UTC) (F)     (DEG/KT/KT) (MB)    (MI)  (FT/S)
BUOY 30 S HIGH I 1550   85 85  160/  6/  8 1017.5R         2/ 5
SEA RIM ST PARK  1600   85     150/  6/  7 1018.3R
PORT ARTHUR      1500      86  220/  3/  6 1017.6R
SABINE PASS N    1500   86 85  220/  5/  8 1017.7R
TEXAS POINT      NOT AVBL
CALCASIEU PASS   1500   84 85  220/  6/  7 1017.0R
LK CHARLES BEACH 1500   83 86                N/A
MARSH ISLAND     1500   86     320/  3/  5   N/A           0
FRESH WATER LOCK 1500   76 86  270/  5/  6 1018.3R
AMERADA PASS     1500   83 83  310/  1/  3 1017.8R
$$


USA.gov is the U.S. government's official web portal to all federal, state and local government web resources and services.